IZ3VCM Weather Reports


Display with metric or nautical units.
time (UTC)temp
F
wind
direction
speed
MPH
gust
MPH
rain 1hr
in
rain 24hr
in
rain mn
in
humidity
%
barometer
mb
20260831220008 71 0 0.0 0.0 0.00 0.00 0.00 82 1013.1
20260831214506 72 0 0.0 0.0 0.00 0.00 0.00 79 1013.1
20260831213008 73 0 0.0 0.0 0.00 0.00 0.00 77 1013.0
20260831211505 75 0 0.0 0.0 0.00 0.00 0.00 75 1012.9
20260831210008 74 0 0.0 0.0 0.00 0.00 0.00 76 1012.7
20260831204506 74 0 0.0 0.0 0.00 0.00 0.00 75 1012.8
20260831203009 75 0 0.0 0.0 0.00 0.00 0.00 74 1012.7
20260831201505 76 0 0.0 0.0 0.00 0.00 0.00 71 1012.4
20260831200007 78 0 0.0 0.0 0.00 0.00 0.00 69 1012.4
20260831194506 80 135 1.0 2.0 0.00 0.00 0.00 65 1012.3
20260831193007 80 135 0.0 2.0 0.00 0.00 0.00 64 1012.3
20260831191505 80 135 1.0 3.0 0.00 0.00 0.00 63 1012.2
20260831190007 81 111 0.0 4.0 0.00 0.00 0.00 62 1012.3
20260831184504 82 150 1.0 2.0 0.00 0.00 0.00 60 1012.0
20260831183007 83 176 2.0 4.0 0.00 0.00 0.00 60 1011.9
20260831181505 82 146 1.0 3.0 0.00 0.00 0.00 61 1011.8
20260831180009 82 0 0.0 0.0 0.00 0.00 0.00 61 1011.6
20260831174505 86 0 0.0 0.0 0.00 0.00 0.00 55 1011.6
20260831173007 89 0 0.0 0.0 0.00 0.00 0.00 53 1011.6
20260831171504 92 0 0.0 0.0 0.00 0.00 0.00 48 1011.7
20260831170007 94 0 0.0 0.0 0.00 0.00 0.00 48 1011.7
20260831164505 97 0 0.0 0.0 0.00 0.00 0.00 47 1011.9
20260831163007 97 0 0.0 0.0 0.00 0.00 0.00 47 1012.0
20260831161504 97 0 0.0 0.0 0.00 0.00 0.00 46 1012.1
20260831160007 97 0 0.0 0.0 0.00 0.00 0.00 46 1012.0
20260831154505 97 0 0.0 0.0 0.00 0.00 0.00 46 1012.0
20260831153007 96 0 0.0 0.0 0.00 0.00 0.00 47 1012.3
20260831151504 96 0 0.0 0.0 0.00 0.00 0.00 47 1012.3
20260831150007 96 345 3.0 6.0 0.00 0.00 0.00 44 1012.5
20260831144505 97 337 0.0 1.0 0.00 0.00 0.00 47 1012.5
20260831143007 97 1 0.0 1.0 0.00 0.00 0.00 46 1012.5
20260831141504 96 292 1.0 3.0 0.00 0.00 0.00 47 1012.5
20260831140007 95 296 2.0 4.0 0.00 0.00 0.00 45 1012.6
20260831134505 95 334 3.0 7.0 0.00 0.00 0.00 45 1012.7
20260831133007 96 292 0.0 2.0 0.00 0.00 0.00 47 1012.7
20260831131504 96 0 0.0 0.0 0.00 0.00 0.00 50 1012.7
20260831130007 95 286 4.0 5.0 0.00 0.00 0.00 45 1013.0
20260831124504 95 312 3.0 6.0 0.00 0.00 0.00 48 1013.1
20260831123006 94 261 2.0 5.0 0.00 0.00 0.00 48 1013.3
20260831121504 95 332 3.0 4.0 0.00 0.00 0.00 47 1013.3
20260831120007 95 292 0.0 1.0 0.00 0.00 0.00 49 1013.5
20260831114504 94 279 1.0 3.0 0.00 0.00 0.00 50 1013.6
20260831113007 93 292 1.0 1.0 0.00 0.00 0.00 49 1013.6
20260831111505 93 229 1.0 5.0 0.00 0.00 0.00 49 1013.8
20260831110006 92 312 5.0 7.0 0.00 0.00 0.00 48 1013.8
20260831104504 92 306 3.0 7.0 0.00 0.00 0.00 49 1013.9
20260831103007 93 203 1.0 6.0 0.00 0.00 0.00 50 1014.0
20260831101504 93 225 0.0 1.0 0.00 0.00 0.00 52 1014.2
20260831100007 93 225 1.0 2.0 0.00 0.00 0.00 50 1014.3
20260831094504 93 0 0.0 0.0 0.00 0.00 0.00 52 1014.3
20260831093006 92 0 0.0 0.0 0.00 0.00 0.00 52 1014.5
20260831091504 91 0 0.0 0.0 0.00 0.00 0.00 52 1014.5
20260831090006 91 181 0.0 1.0 0.00 0.00 0.00 54 1014.6
20260831084505 91 0 0.0 0.0 0.00 0.00 0.00 54 1014.4
20260831083006 88 181 0.0 2.0 0.00 0.00 0.00 57 1014.3
20260831081504 87 0 0.0 0.0 0.00 0.00 0.00 60 1014.3
20260831080006 86 181 1.0 3.0 0.00 0.00 0.00 61 1014.3
20260831074504 84 181 1.0 2.0 0.00 0.00 0.00 64 1014.4
20260831073006 84 0 0.0 0.0 0.00 0.00 0.00 64 1014.0
20260831071504 83 0 0.0 0.0 0.00 0.00 0.00 63 1014.0
20260831070006 81 0 0.0 0.0 0.00 0.00 0.00 66 1013.7
20260831064504 80 181 0.0 3.0 0.00 0.00 0.00 67 1013.7
20260831063007 80 0 0.0 0.0 0.00 0.00 0.00 69 1013.8
20260830221506 68 0 0.0 0.0 0.00 0.00 0.00 81 1013.8